• en Belgique
  • Liste des pays
  • À 7 jours
  • Température de l'eau
  • Carte satellitaire
  • Carte météo
  • Widgets météo
  • user-avatar
    Se connecter

    Météo par heure à Skajzgiry

    Ce jour, 18 Juin, Lundi

    Heure Température Précipitation Vent Pression Humidité
    00:00 +19°C° 0 mm 1 m/s 740 mmHg 79%
    01:00 +19°C° 0 mm 1 m/s 740 mmHg 80%
    02:00 +19°C° 0 mm 1 m/s 740 mmHg 85%
    03:00 +18°C° 0,1 mm 1 m/s 740 mmHg 86%
    04:00 +17°C° 0,1 mm 2 m/s 740 mmHg 88%
    05:00 +16°C° 0,1 mm 2 m/s 740 mmHg 90%
    06:00 +18°C° 0 mm 2 m/s 740 mmHg 86%
    07:00 +19°C° 0 mm 2 m/s 740 mmHg 82%
    08:00 +21°C° 0 mm 3 m/s 741 mmHg 78%
    09:00 +22°C° 0,9 mm 3 m/s 741 mmHg 75%
    10:00 +24°C° 0,9 mm 3 m/s 741 mmHg 71%
    11:00 +24°C° 0,9 mm 3 m/s 741 mmHg 68%
    12:00 +25°C° 0,7 mm 3 m/s 741 mmHg 67%
    13:00 +25°C° 0,7 mm 3 m/s 741 mmHg 66%
    14:00 +25°C° 0,7 mm 3 m/s 741 mmHg 65%
    15:00 +24°C° 0,5 mm 3 m/s 741 mmHg 66%
    16:00 +24°C° 0,5 mm 3 m/s 741 mmHg 67%
    17:00 +22°C° 0,5 mm 4 m/s 741 mmHg 68%
    18:00 +21°C° 0,1 mm 3 m/s 741 mmHg 72%
    19:00 +19°C° 0,1 mm 3 m/s 741 mmHg 76%
    20:00 +18°C° 0,1 mm 3 m/s 741 mmHg 80%
    21:00 +16°C° 0 mm 3 m/s 741 mmHg 80%
    22:00 +15°C° 0 mm 2 m/s 741 mmHg 81%
    23:00 +13°C° 0 mm 2 m/s 742 mmHg 82%

    Demain, 19 Juin, Mardi

    Heure Température Précipitation Vent Pression Humidité
    00:00 +13°C° 0 mm 1 m/s 742 mmHg 81%
    01:00 +12°C° 0 mm 1 m/s 742 mmHg 80%
    02:00 +12°C° 0 mm 1 m/s 742 mmHg 79%
    03:00 +12°C° 0 mm 1 m/s 742 mmHg 78%
    04:00 +12°C° 0 mm 1 m/s 741 mmHg 78%
    05:00 +12°C° 0 mm 1 m/s 741 mmHg 77%
    06:00 +14°C° 0 mm 1 m/s 742 mmHg 73%
    07:00 +16°C° 0 mm 2 m/s 742 mmHg 69%
    08:00 +18°C° 0 mm 2 m/s 742 mmHg 65%
    09:00 +20°C° 0 mm 3 m/s 742 mmHg 64%
    10:00 +21°C° 0 mm 4 m/s 742 mmHg 62%
    11:00 +22°C° 0 mm 5 m/s 741 mmHg 61%
    12:00 +22°C° 0,1 mm 5 m/s 741 mmHg 62%
    13:00 +22°C° 0,1 mm 5 m/s 741 mmHg 64%
    14:00 +22°C° 0,1 mm 5 m/s 741 mmHg 65%
    15:00 +22°C° 0,1 mm 5 m/s 741 mmHg 68%
    16:00 +21°C° 0,1 mm 5 m/s 741 mmHg 71%
    17:00 +21°C° 0,1 mm 5 m/s 741 mmHg 73%
    18:00 +20°C° 0 mm 5 m/s 741 mmHg 76%
    19:00 +19°C° 0 mm 4 m/s 742 mmHg 79%
    20:00 +18°C° 0 mm 3 m/s 742 mmHg 81%
    21:00 +16°C° 0 mm 3 m/s 742 mmHg 86%
    22:00 +14°C° 0 mm 3 m/s 742 mmHg 90%
    23:00 +13°C° 0 mm 2 m/s 742 mmHg 94%

    Après-demain, 20 Juin, Mercredi

    Heure Température Précipitation Vent Pression Humidité
    00:00 +12°C° 0 mm 3 m/s 742 mmHg 94%
    01:00 +12°C° 0 mm 3 m/s 743 mmHg 94%
    02:00 +12°C° 0 mm 3 m/s 743 mmHg 94%
    03:00 +12°C° 0 mm 3 m/s 743 mmHg 94%
    04:00 +12°C° 0 mm 3 m/s 743 mmHg 95%
    05:00 +12°C° 0 mm 3 m/s 743 mmHg 95%
    06:00 +14°C° 0 mm 3 m/s 743 mmHg 89%
    07:00 +15°C° 0 mm 4 m/s 743 mmHg 82%
    08:00 +17°C° 0 mm 4 m/s 744 mmHg 76%
    09:00 +18°C° 0 mm 4 m/s 744 mmHg 71%
    10:00 +19°C° 0 mm 4 m/s 744 mmHg 65%
    11:00 +20°C° 0 mm 4 m/s 744 mmHg 60%
    12:00 +21°C° 0 mm 4 m/s 744 mmHg 58%
    13:00 +21°C° 0 mm 4 m/s 744 mmHg 57%
    14:00 +22°C° 0 mm 4 m/s 744 mmHg 55%
    15:00 +21°C° 0 mm 4 m/s 743 mmHg 56%
    16:00 +21°C° 0 mm 4 m/s 743 mmHg 57%
    17:00 +21°C° 0 mm 4 m/s 743 mmHg 59%
    18:00 +20°C° 0 mm 3 m/s 743 mmHg 65%
    19:00 +19°C° 0 mm 2 m/s 743 mmHg 71%
    20:00 +19°C° 0 mm 1 m/s 742 mmHg 77%
    21:00 +18°C° 0 mm 1 m/s 742 mmHg 80%
    22:00 +15°C° 0 mm 1 m/s 742 mmHg 83%
    23:00 +14°C° 0 mm 2 m/s 742 mmHg 86%

    21 Juin, Jeudi

    Heure Température Précipitation Vent Pression Humidité
    00:00 +14°C° 0 mm 2 m/s 742 mmHg 86%
    01:00 +14°C° 0 mm 2 m/s 742 mmHg 87%
    02:00 +13°C° 0 mm 2 m/s 742 mmHg 87%
    03:00 +13°C° 0 mm 3 m/s 741 mmHg 86%
    04:00 +13°C° 0 mm 3 m/s 741 mmHg 85%
    05:00 +13°C° 0 mm 3 m/s 741 mmHg 83%
    06:00 +16°C° 0 mm 3 m/s 741 mmHg 78%
    07:00 +18°C° 0 mm 3 m/s 740 mmHg 74%
    08:00 +20°C° 0 mm 3 m/s 740 mmHg 69%
    09:00 +21°C° 0 mm 4 m/s 740 mmHg 65%
    10:00 +23°C° 0 mm 4 m/s 739 mmHg 62%
    11:00 +25°C° 0 mm 5 m/s 739 mmHg 58%
    12:00 +26°C° 0 mm 5 m/s 738 mmHg 57%
    13:00 +27°C° 0 mm 5 m/s 738 mmHg 56%
    14:00 +27°C° 0 mm 5 m/s 737 mmHg 55%
    15:00 +27°C° 0,1 mm 5 m/s 736 mmHg 57%
    16:00 +27°C° 0,1 mm 4 m/s 736 mmHg 60%
    17:00 +27°C° 0,1 mm 4 m/s 735 mmHg 63%
    18:00 +25°C° 0,4 mm 4 m/s 734 mmHg 70%
    19:00 +23°C° 0,4 mm 4 m/s 733 mmHg 77%
    20:00 +21°C° 0,4 mm 3 m/s 733 mmHg 84%
    21:00 +21°C° 0,1 mm 4 m/s 732 mmHg 86%
    22:00 +20°C° 0,1 mm 4 m/s 731 mmHg 88%
    23:00 +19°C° 0,1 mm 4 m/s 731 mmHg 90%

    22 Juin, Vendredi

    Heure Température Précipitation Vent Pression Humidité
    00:00 +19°C° 1,5 mm 4 m/s 730 mmHg 92%
    01:00 +19°C° 1,5 mm 4 m/s 730 mmHg 94%
    02:00 +18°C° 1,5 mm 4 m/s 730 mmHg 96%
    03:00 +16°C° 0,6 mm 5 m/s 730 mmHg 95%
    04:00 +15°C° 0,6 mm 5 m/s 730 mmHg 95%
    05:00 +13°C° 0,6 mm 6 m/s 730 mmHg 94%
    06:00 +13°C° 0,1 mm 6 m/s 731 mmHg 92%
    07:00 +11°C° 0,1 mm 6 m/s 731 mmHg 89%
    08:00 +11°C° 0,1 mm 6 m/s 732 mmHg 87%
    09:00 +11°C° 0 mm 6 m/s 732 mmHg 79%
    10:00 +12°C° 0 mm 7 m/s 733 mmHg 72%
    11:00 +14°C° 0 mm 7 m/s 734 mmHg 65%
    12:00 +15°C° 0,1 mm 7 m/s 734 mmHg 64%
    13:00 +15°C° 0,1 mm 7 m/s 734 mmHg 62%
    14:00 +16°C° 0,1 mm 7 m/s 734 mmHg 60%
    15:00 +15°C° 0,1 mm 6 m/s 734 mmHg 60%
    16:00 +15°C° 0,1 mm 6 m/s 734 mmHg 59%
    17:00 +15°C° 0,1 mm 6 m/s 734 mmHg 58%
    18:00 +14°C° 0 mm 5 m/s 734 mmHg 62%
    19:00 +13°C° 0 mm 5 m/s 733 mmHg 66%
    20:00 +12°C° 0 mm 4 m/s 733 mmHg 70%
    21:00 +11°C° 0 mm 4 m/s 733 mmHg 73%
    22:00 +10°C° 0 mm 4 m/s 733 mmHg 75%
    23:00 +8°C° 0 mm 4 m/s 733 mmHg 78%

    23 Juin, Samedi

    Heure Température Précipitation Vent Pression Humidité
    00:00 +8°C° 0 mm 5 m/s 733 mmHg 80%
    01:00 +8°C° 0 mm 5 m/s 733 mmHg 82%
    02:00 +8°C° 0 mm 5 m/s 733 mmHg 85%
    03:00 +8°C° 0 mm 5 m/s 734 mmHg 86%
    04:00 +8°C° 0 mm 5 m/s 734 mmHg 87%
    05:00 +8°C° 0 mm 5 m/s 734 mmHg 88%
    06:00 +9°C° 0 mm 5 m/s 734 mmHg 82%
    07:00 +10°C° 0 mm 5 m/s 734 mmHg 76%
    08:00 +13°C° 0 mm 5 m/s 734 mmHg 70%
    09:00 +14°C° 0 mm 5 m/s 734 mmHg 65%
    10:00 +15°C° 0 mm 6 m/s 734 mmHg 60%
    11:00 +16°C° 0 mm 6 m/s 734 mmHg 55%
    12:00 +16°C° 0,4 mm 6 m/s 734 mmHg 59%
    13:00 +16°C° 0,4 mm 6 m/s 734 mmHg 64%
    14:00 +16°C° 0,4 mm 6 m/s 734 mmHg 69%
    15:00 +15°C° 0,6 mm 6 m/s 734 mmHg 73%
    16:00 +14°C° 0,6 mm 6 m/s 735 mmHg 77%
    17:00 +14°C° 0,6 mm 6 m/s 735 mmHg 81%
    18:00 +13°C° 0,2 mm 5 m/s 735 mmHg 84%
    19:00 +12°C° 0,2 mm 4 m/s 735 mmHg 86%
    20:00 +12°C° 0,2 mm 4 m/s 735 mmHg 89%
    21:00 +11°C° 0,1 mm 4 m/s 735 mmHg 91%
    22:00 +10°C° 0,1 mm 4 m/s 736 mmHg 92%
    23:00 +10°C° 0,1 mm 4 m/s 736 mmHg 94%
    Voir plus